Wind_Speed
15 16 16 17 17 17 17 18 18 18 18 18 18 18 19 19 20 21 21 22 22 23 24 24 25 26 27 28 28 29 30 30 31 32 32 33 34 34
18 18 19 19 19 19 19 20 20 20 20 19 19 19 20 20 20 21 22 22 23 23 24 25 26 27 28 29 30 31 32 32 32 33 35 35 35 36
21 21 21 21 21 21 22 22 22 22 22 22 22 21 21 22 22 22 22 23 24 24 25 25 26 27 28 29 31 32 33 34 34 34 35 36 37 38
23 23 23 23 23 23 23 23 24 24 24 24 24 24 24 24 24 24 24 24 24 25 26 27 28 28 29 30 31 32 33 34 36 36 37 38 39 39
25 25 25 25 25 25 25 25 25 25 26 26 26 26 26 26 26 26 26 26 26 26 26 27 28 29 30 31 31 32 33 34 36 37 38 39 39 40
27 27 28 27 27 27 27 28 28 27 27 27 28 28 28 28 28 28 28 28 28 28 28 27 28 29 30 31 32 33 34 35 35 36 37 39 40 41
29 29 29 29 29 29 29 29 29 29 30 30 30 30 31 30 30 30 29 30 29 30 29 29 29 29 30 32 32 33 34 35 36 37 38 39 40 41
30 31 31 31 31 31 31 32 32 32 32 32 32 33 33 33 33 33 32 31 31 32 31 31 31 31 31 31 32 33 34 35 36 37 38 39 40 41
32 33 33 33 33 33 33 33 34 35 35 35 35 35 35 35 35 35 35 34 34 34 34 33 33 33 33 33 33 33 34 35 36 37 38 39 40 41
34 35 35 35 35 36 36 36 36 37 37 38 38 37 38 38 38 38 37 37 36 36 37 35 35 35 35 35 35 34 35 35 36 37 38 39 40 41
36 37 37 38 38 39 39 39 39 40 40 41 40 40 39 40 40 40 40 39 38 38 39 39 37 37 37 37 37 36 36 37 37 37 38 39 41 42
39 39 40 41 41 42 43 43 42 43 44 44 44 43 42 42 43 43 43 43 42 41 41 42 41 40 39 38 38 38 38 38 38 38 39 40 41 42
42 42 42 43 44 45 46 46 46 47 47 47 46 46 46 46 46 46 46 46 46 44 44 45 44 43 42 40 40 40 40 39 39 40 40 41 41 42
44 45 46 47 48 48 49 50 50 50 50 50 50 49 50 49 49 49 48 48 47 47 46 47 46 46 45 43 41 41 41 41 40 40 41 41 41 42
47 48 49 49 50 51 52 53 53 54 54 54 53 53 53 52 52 51 50 49 48 47 47 47 47 47 46 44 43 42 41 41 41 41 41 41 41 41
49 50 52 52 54 55 55 56 56 56 57 57 56 55 54 53 52 51 50 50 49 48 47 47 47 46 45 44 44 43 42 41 42 42 42 41 41 41
53 55 56 56 57 57 58 58 58 58 58 57 56 55 54 53 52 51 50 50 49 48 47 46 46 46 46 44 43 42 42 41 42 42 42 41 40 40
57 57 58 59 59 59 59 59 58 58 57 56 56 55 54 53 52 51 50 49 48 47 46 45 45 45 45 43 43 42 42 41 41 41 41 40 39 39
59 59 60 60 60 60 59 58 58 57 56 55 55 54 53 52 51 50 50 49 48 47 45 44 44 43 44 43 41 42 41 39 40 40 39 39 38 38
59 59 59 59 58 58 57 56 56 55 54 53 52 51 50 49 48 47 46 46 46 45 44 43 42 42 42 42 41 39 39 38 38 38 38 38 38 38
57 57 56 56 55 54 53 52 52 50 49 48 47 45 44 44 44 44 43 43 44 44 43 42 41 41 41 41 40 38 38 39 39 38 37 38 37 37
54 53 52 50 49 48 47 46 45 44 43 42 41 40 40 41 41 41 40 40 40 40 40 40 39 39 39 39 38 37 37 37 37 37 37 37 37 36
49 48 46 45 44 44 42 41 41 39 38 38 37 36 36 36 36 36 37 37 37 37 36 36 36 36 36 37 36 36 35 35 35 35 35 36 36 36
Wind_Direction
309 311 312 313 314 315 315 314 313 313 311 310 307 304 302 300 298 295 291 289 286 282 279 276 273 270 268 266 264 262 261 259 256 255 252 250 249 249
304 306 307 308 308 309 309 309 308 308 308 307 305 303 301 299 298 296 294 291 289 286 283 279 276 273 270 267 265 263 262 260 258 256 254 253 251 251
300 303 304 304 304 305 305 306 306 306 306 305 304 302 300 299 297 295 292 291 289 287 285 282 280 276 273 270 267 265 263 261 259 258 256 255 253 253
296 298 299 299 300 301 302 303 303 303 303 303 303 301 299 298 297 295 293 290 289 287 286 284 282 280 276 273 270 267 265 262 260 259 257 256 254 253
295 295 295 296 297 298 299 299 299 299 300 300 301 300 298 296 295 294 292 291 290 288 286 285 284 282 279 276 273 270 267 264 262 260 259 257 255 254
294 294 294 294 295 296 297 297 296 297 297 298 298 298 297 295 294 292 291 290 290 289 287 286 284 283 282 279 276 272 269 267 265 262 260 259 257 255
293 293 293 293 293 293 294 295 295 295 296 296 297 296 296 295 293 292 290 289 288 287 287 287 285 284 282 281 279 275 272 269 266 264 263 260 259 257
291 291 291 292 292 292 292 293 294 294 294 294 295 294 294 294 293 292 291 289 288 287 286 287 286 285 283 281 279 278 275 271 268 266 264 262 260 259
288 288 288 289 289 290 291 292 292 293 293 293 293 294 293 292 292 291 290 289 289 287 286 286 286 285 284 282 279 277 275 274 271 268 265 264 262 260
286 286 287 288 288 289 290 291 291 292 292 292 291 291 291 291 291 290 289 289 288 287 286 286 285 285 284 282 280 278 275 273 272 271 269 266 264 262
286 286 286 287 288 289 290 291 291 291 291 290 290 289 289 289 289 289 289 288 287 286 285 285 284 284 284 282 280 278 276 274 272 271 270 268 266 264
284 285 285 287 287 288 289 289 289 289 289 289 289 288 288 287 287 287 287 286 285 284 284 283 283 283 281 281 279 278 275 273 272 271 270 269 268 266
285 286 286 287 287 288 288 288 288 288 288 288 288 287 287 286 285 285 285 285 284 283 282 282 282 282 281 279 277 277 275 272 271 271 270 269 268 267
286 286 287 287 288 288 288 288 288 288 288 288 287 286 285 285 284 283 282 282 282 281 280 281 281 281 280 278 277 276 274 273 271 270 269 268 268 267
287 287 287 287 287 288 288 288 288 288 288 287 287 286 284 284 283 282 281 280 279 278 278 279 279 279 278 278 277 275 274 273 271 271 269 268 266 266
288 288 288 288 288 288 288 288 288 288 287 287 286 285 284 283 282 281 280 279 278 277 276 276 276 276 276 276 276 275 274 272 271 271 270 268 266 265
290 290 290 289 289 289 288 288 287 287 286 285 284 283 282 281 280 279 278 277 276 275 276 275 274 274 274 274 275 274 273 272 272 271 270 267 265 264
291 291 291 290 289 289 288 288 287 286 284 283 283 282 280 279 278 277 276 275 275 274 274 273 273 272 272 272 272 272 272 272 271 270 268 267 264 262
291 292 291 291 290 289 288 287 286 285 284 283 282 281 280 278 276 275 274 273 272 272 271 271 270 269 270 270 269 270 270 270 269 268 267 266 264 262
292 292 292 291 290 289 288 287 286 285 283 282 281 280 278 277 276 274 272 270 269 268 267 267 267 267 268 269 268 267 268 269 269 267 266 265 263 261
293 293 293 292 291 290 289 287 286 284 283 283 281 279 276 275 273 271 269 268 268 266 265 265 265 264 264 266 267 267 268 269 268 266 264 263 263 262
294 293 293 292 291 290 289 287 286 285 283 282 280 278 276 274 272 270 268 266 266 265 264 263 262 262 262 263 265 266 267 267 266 264 263 263 263 262
295 294 293 293 292 291 290 288 286 284 283 282 279 278 276 275 273 271 268 266 265 264 263 261 261 261 261 263 264 265 265 265 265 265 264 263 262 261
Height
5867 5866 5864 5863 5862 5860 5858 5857 5856 5854 5853 5852 5850 5849 5848 5847 5846 5845 5844 5844 5843 5844 5844 5844 5845 5845 5846 5847 5848 5850 5851 5853 5855 5857 5859 5861 5864 5866
5863 5862 5861 5859 5858 5856 5855 5853 5851 5850 5849 5847 5846 5845 5843 5842 5841 5840 5839 5838 5837 5837 5837 5837 5837 5838 5838 5839 5840 5841 5843 5844 5846 5848 5850 5853 5855 5858
5859 5858 5856 5855 5853 5852 5850 5848 5847 5845 5844 5842 5841 5840 5838 5837 5836 5835 5834 5833 5832 5831 5830 5830 5830 5830 5830 5831 5832 5832 5834 5835 5837 5839 5841 5843 5846 5848
5853 5852 5851 5850 5848 5846 5845 5843 5842 5840 5839 5837 5835 5834 5833 5831 5830 5829 5827 5826 5826 5825 5823 5823 5822 5822 5822 5822 5823 5823 5824 5826 5827 5829 5831 5833 5835 5838
5848 5846 5845 5844 5842 5840 5839 5837 5836 5834 5832 5831 5829 5828 5826 5825 5824 5822 5821 5820 5818 5817 5817 5815 5814 5814 5813 5813 5813 5814 5815 5816 5817 5818 5820 5822 5825 5827
5841 5840 5838 5837 5835 5834 5832 5830 5829 5827 5826 5824 5822 5821 5819 5818 5816 5815 5814 5812 5811 5810 5809 5808 5807 5805 5804 5804 5804 5804 5804 5805 5806 5808 5809 5811 5813 5816
5834 5832 5831 5829 5828 5826 5825 5823 5822 5820 5818 5817 5815 5813 5811 5809 5808 5807 5805 5804 5803 5801 5800 5799 5798 5798 5796 5795 5794 5794 5794 5794 5795 5797 5798 5800 5802 5804
5826 5825 5823 5821 5820 5818 5817 5815 5813 5812 5810 5808 5806 5804 5803 5801 5799 5797 5796 5795 5794 5793 5791 5790 5789 5788 5787 5786 5785 5784 5784 5784 5784 5785 5786 5788 5789 5791
5817 5816 5814 5813 5811 5809 5808 5806 5804 5802 5801 5799 5797 5795 5793 5791 5789 5788 5786 5785 5784 5782 5781 5780 5779 5778 5777 5776 5775 5774 5773 5773 5773 5774 5775 5776 5777 5779
5808 5806 5805 5803 5801 5799 5798 5796 5795 5793 5790 5788 5786 5784 5782 5780 5778 5777 5775 5774 5773 5771 5769 5769 5768 5767 5766 5765 5764 5763 5763 5762 5762 5762 5763 5764 5765 5766
5798 5796 5794 5793 5791 5788 5787 5785 5783 5781 5779 5776 5775 5773 5771 5769 5767 5765 5764 5762 5761 5760 5758 5757 5756 5755 5754 5753 5752 5751 5751 5751 5751 5750 5750 5751 5752 5753
5787 5785 5783 5781 5779 5777 5775 5773 5771 5769 5766 5764 5762 5761 5759 5757 5754 5752 5750 5749 5748 5747 5745 5743 5743 5742 5742 5741 5739 5739 5739 5739 5738 5738 5738 5738 5738 5740
5775 5773 5771 5768 5766 5764 5762 5760 5757 5755 5752 5750 5748 5747 5745 5743 5741 5739 5736 5735 5733 5733 5732 5729 5729 5728 5727 5728 5727 5726 5725 5725 5725 5725 5725 5725 5725 5726
5762 5760 5757 5755 5752 5750 5747 5745 5742 5739 5737 5735 5733 5732 5730 5728 5726 5724 5722 5720 5719 5718 5717 5715 5714 5713 5712 5712 5713 5712 5711 5711 5711 5712 5712 5712 5712 5712
5748 5745 5743 5740 5737 5734 5732 5728 5725 5722 5720 5718 5716 5715 5712 5710 5708 5707 5705 5704 5703 5702 5701 5700 5699 5698 5697 5697 5698 5698 5698 5697 5697 5697 5698 5698 5698 5699
5732 5730 5727 5724 5720 5718 5715 5711 5708 5705 5702 5699 5698 5696 5694 5692 5691 5689 5688 5687 5686 5686 5686 5685 5683 5682 5682 5682 5682 5683 5683 5683 5683 5683 5683 5684 5684 5685
5716 5713 5710 5706 5703 5700 5696 5693 5689 5686 5683 5681 5678 5677 5675 5674 5673 5672 5670 5670 5669 5669 5669 5669 5668 5667 5667 5667 5667 5668 5668 5668 5669 5668 5668 5670 5671 5672
5698 5695 5691 5687 5684 5680 5677 5673 5670 5667 5664 5661 5659 5657 5656 5655 5654 5653 5652 5652 5652 5653 5653 5653 5653 5652 5652 5652 5653 5653 5653 5654 5654 5654 5654 5655 5658 5658
5680 5676 5672 5668 5664 5660 5656 5653 5650 5647 5644 5642 5640 5638 5637 5636 5635 5635 5635 5634 5635 5636 5637 5637 5637 5636 5636 5638 5640 5638 5639 5640 5640 5640 5641 5642 5644 5645
5662 5657 5653 5649 5644 5640 5637 5633 5630 5627 5625 5622 5621 5619 5618 5617 5617 5617 5617 5617 5618 5619 5620 5621 5622 5622 5622 5624 5625 5626 5625 5626 5627 5627 5628 5628 5630 5632
5644 5639 5634 5630 5625 5622 5618 5615 5611 5609 5607 5605 5603 5602 5601 5600 5600 5600 5601 5601 5602 5603 5604 5606 5607 5608 5608 5609 5611 5612 5613 5612 5613 5614 5615 5616 5617 5619
5626 5621 5617 5612 5608 5604 5601 5598 5595 5593 5591 5589 5588 5587 5586 5585 5585 5585 5585 5586 5587 5588 5590 5591 5593 5593 5594 5596 5597 5599 5600 5600 5601 5601 5603 5604 5605 5606
5609 5605 5601 5597 5593 5589 5586 5583 5581 5579 5577 5575 5574 5573 5572 5572 5571 5571 5572 5573 5573 5575 5576 5578 5579 5581 5582 5583 5585 5586 5588 5588 5589 5590 5591 5592 5593 5594